Location: Balaclava NSW 2575, Australia
(34.4510°S, 150.4953°E)
Time: 16:30:16
(UTC+10:00)

Envisat - Pass Details

Date: 23 May 2021
Orbit: 764 x 766 km, 98.1° (Epoch: 18 June)

Event Time Altitude Azimuth Distance (km) Brightness Sun altitude
Rises 17:19:25 0° 167° (SSE) 3,265 5.9 -4.6°
Reaches altitude 10° 17:21:45 10° 166° (SSE) 2,332 5.2 -5.1°
Maximum altitude 17:26:55 83° 78° (ENE) 783 3.0 -6.1°
Drops below altitude 10° 17:32:00 10° 349° (N) 2,302 5.9 -7.1°
Sets 17:34:17 0° 348° (NNW) 3,220 6.7 -7.5°
